Wind_Speed
60 54 51 48 47 48 47 48 49 47 46 50 52 51 51 53 47 48 46 38 39 35 40 34 32 26 16 15 24 30 31 36 37 34 42 40 41 42 43 44 43 39 36 30
58 54 51 49 49 49 47 46 45 45 47 47 45 46 44 42 40 39 40 35 40 38 42 41 38 26 26 25 18 24 30 32 33 38 40 43 43 45 44 43 42 44 39 34
55 54 49 48 49 49 49 46 44 44 46 42 40 36 34 34 32 35 36 34 37 39 44 45 42 39 26 26 25 20 24 30 32 33 38 40 39 37 39 40 41 39 37 33
48 48 48 48 48 50 49 45 42 43 42 42 38 35 31 29 24 29 31 33 35 40 46 47 44 40 37 36 23 23 27 22 27 36 34 34 34 34 33 35 36 35 35 36
43 44 46 48 46 46 45 44 42 42 41 39 38 33 26 25 22 23 28 30 33 39 44 46 45 43 41 34 37 27 20 23 22 25 27 29 28 27 25 27 30 34 33 32
38 38 38 38 40 42 42 39 39 42 40 39 37 29 24 24 23 23 25 28 28 35 40 48 48 45 43 43 36 36 34 28 27 25 25 26 27 24 24 24 25 27 28 30
33 35 36 36 36 37 36 31 25 28 25 33 32 27 22 27 25 24 26 26 25 32 37 41 45 49 46 47 43 36 36 35 31 29 26 26 29 28 29 29 26 27 30 31
29 30 31 31 32 33 30 23 18 15 17 27 27 30 30 32 26 28 26 21 23 25 30 34 38 46 48 47 45 45 43 36 40 32 37 33 29 29 29 30 30 31 33 33
24 26 29 30 31 28 24 20 18 15 14 22 27 32 28 32 28 32 21 25 23 25 23 24 28 33 39 43 44 45 45 45 43 46 43 36 35 30 28 30 34 35 36 36
21 25 27 27 28 26 25 23 18 18 13 21 30 30 31 27 28 29 23 19 20 24 20 20 21 24 26 32 36 42 44 44 45 44 46 45 42 44 40 36 35 36 39 41
18 21 23 25 26 27 27 21 16 11 18 26 28 28 32 36 31 26 22 17 22 22 21 20 20 19 20 22 23 24 30 34 38 41 43 47 47 48 49 49 46 46 46 48
18 21 24 26 27 27 27 22 16 17 25 26 28 29 34 36 30 26 20 23 24 23 21 22 22 22 23 24 25 23 21 23 23 24 26 29 29 29 32 37 42 45 47 50
17 18 25 27 28 28 27 23 20 18 28 28 33 33 35 32 25 22 19 24 24 23 21 22 23 22 22 23 23 23 23 21 23 21 21 22 17 15 15 16 18 20 20 22
24 23 22 24 29 29 29 26 24 25 27 28 31 35 28 21 22 22 20 21 22 21 20 19 21 22 21 22 22 23 23 21 21 22 22 22 21 20 20 19 18 20 20 19
27 29 30 27 27 32 31 30 27 25 24 26 25 24 23 26 26 25 22 20 22 21 18 17 18 19 19 20 22 24 25 24 25 25 26 28 28 26 27 26 26 25 27 28
29 29 32 34 31 29 33 33 33 30 26 25 23 23 24 27 30 27 23 23 22 20 18 17 17 18 18 19 20 21 22 24 25 25 27 28 31 32 33 34 35 34 33 34
29 28 31 32 35 31 31 35 32 34 31 28 25 23 21 25 30 26 19 23 23 21 21 19 16 17 19 19 19 19 22 24 26 28 30 34 35 37 38 39 39 40 41 42
29 29 31 28 31 31 28 29 31 31 33 34 30 26 22 23 23 23 23 22 23 23 21 19 20 20 21 21 21 21 22 26 28 31 33 36 38 39 42 44 46 48 49 49
30 28 29 31 30 30 26 24 27 28 30 31 33 30 28 25 25 23 23 23 23 23 23 23 22 23 25 23 22 23 26 29 30 33 35 37 39 40 43 46 47 49 50 50
35 33 34 30 31 28 27 24 27 28 30 32 31 28 25 22 21 20 19 20 22 24 22 24 25 25 25 24 24 27 27 26 27 31 35 37 39 40 42 44 44 38 39 41
36 39 37 30 28 30 28 24 26 28 28 28 25 21 20 19 18 16 18 19 21 21 22 26 27 25 25 26 28 28 29 31 36 39 42 44 44 45 44 44 41 43 40 32
34 32 36 32 26 26 19 22 24 24 23 23 21 19 20 19 18 16 16 18 21 24 25 27 27 23 24 25 26 29 32 34 37 40 41 43 42 42 41 41 40 39 38 33
30 29 31 27 25 23 20 21 22 22 22 24 23 25 24 19 22 17 15 15 13 15 17 19 15 18 21 23 26 28 29 31 34 35 35 37 39 37 36 41 41 38 37 36
26 24 25 26 21 17 19 24 24 25 28 29 32 28 25 22 16 14 13 8 8 11 9 8 12 17 22 23 22 21 23 23 21 24 28 30 33 37 40 40 40 40 40 41
18 21 20 17 19 23 29 24 27 30 27 23 25 23 22 18 11 9 10 11 12 10 9 13 15 17 19 26 29 29 28 28 29 29 28 29 33 33 32 37 39 40 38 36
20 19 23 25 28 26 25 25 26 26 29 25 19 18 17 15 14 13 13 12 11 14 16 18 20 22 24 28 33 35 36 37 38 38 39 42 36 32 33 31 31 34 38 43
19 21 27 29 26 25 24 23 22 20 18 15 13 12 11 9 9 9 12 14 16 18 21 23 25 26 27 28 30 30 30 33 35 36 34 30 27 28 31 33 35 37 38 39
Wind_Direction
246 247 248 248 252 255 256 257 258 258 260 261 264 269 271 269 263 259 258 252 240 233 229 226 216 213 210 221 238 227 213 218 208 211 212 215 224 226 230 235 240 244 248 246
242 243 246 248 250 253 254 256 256 258 258 261 268 271 267 260 256 253 254 244 232 223 222 221 210 213 250 226 231 219 218 217 214 216 215 214 222 227 231 236 239 246 248 252
237 241 244 247 250 253 254 256 256 253 256 262 263 268 261 257 253 249 246 237 226 219 216 219 213 209 207 229 223 223 212 220 219 223 229 228 229 231 233 236 240 245 251 255
238 237 240 244 248 251 253 253 255 253 258 260 252 258 254 251 245 241 234 230 220 216 214 218 214 211 209 224 207 220 227 217 217 222 229 231 233 233 233 237 243 248 248 254
230 235 238 238 243 248 251 253 254 255 256 249 245 250 248 239 231 229 222 217 215 213 212 217 214 215 205 218 223 207 220 225 233 222 222 232 235 237 236 238 242 245 248 253
229 233 236 238 242 247 251 251 256 257 250 240 235 241 229 214 225 236 211 207 211 211 211 215 214 216 210 208 207 214 221 227 226 230 232 234 238 237 240 245 246 250 257 260
224 228 231 234 238 244 247 254 248 245 230 225 220 217 208 206 221 225 209 196 216 212 212 216 217 215 214 215 219 212 214 216 205 227 243 242 243 243 247 253 251 250 253 255
225 225 227 230 233 242 243 236 243 245 212 211 208 204 207 195 217 212 194 205 208 219 214 214 219 220 221 224 222 224 224 225 226 231 225 222 234 242 245 242 247 250 255 257
225 224 226 228 234 226 226 234 234 232 209 200 198 194 199 201 204 194 189 181 194 209 213 211 216 221 223 225 223 225 227 229 229 228 227 228 231 236 240 244 246 248 253 258
225 226 225 217 211 219 227 231 236 233 201 189 194 198 204 191 191 186 180 174 188 203 204 204 206 215 219 223 226 228 231 235 234 237 241 243 243 247 245 251 248 251 252 252
215 210 209 212 215 219 224 227 219 193 171 185 190 188 186 186 184 181 178 174 187 193 202 204 206 207 211 213 215 220 225 232 236 238 240 246 246 249 254 257 255 253 258 259
214 214 212 212 211 215 218 216 205 192 171 172 176 177 180 187 183 182 186 183 187 194 200 206 204 203 205 205 206 210 212 220 227 231 236 243 248 247 249 249 251 255 256 260
215 212 212 210 211 212 215 210 197 178 166 170 173 172 183 182 175 174 170 181 191 198 202 207 209 207 206 209 211 210 214 216 222 226 232 240 237 230 225 220 228 236 245 257
218 216 218 213 210 211 213 209 197 186 167 168 169 180 179 181 172 172 172 178 195 207 209 210 210 212 209 211 213 214 215 216 221 227 231 238 244 244 242 243 245 251 260 265
224 221 217 215 211 207 211 209 201 200 198 187 190 188 180 177 173 179 185 188 197 213 214 214 217 219 216 218 217 222 227 231 233 235 239 244 248 252 256 254 256 262 268 276
220 218 216 213 211 205 204 206 204 202 208 207 205 200 194 181 181 184 192 193 200 212 217 216 221 223 229 228 228 231 232 235 239 244 250 254 259 262 264 263 262 265 270 274
206 208 203 204 203 205 204 205 204 205 208 212 214 212 201 193 189 196 197 199 209 219 228 231 234 239 241 240 241 241 249 249 249 252 256 258 261 263 265 264 264 266 269 273
192 198 199 199 193 195 197 197 201 201 207 214 215 213 212 200 202 205 210 213 219 227 232 234 238 242 249 248 250 255 258 259 259 262 263 264 265 265 265 266 267 268 271 273
161 161 161 170 179 185 185 184 191 197 204 212 215 214 214 210 212 215 217 224 230 231 231 232 239 246 253 260 264 262 263 265 266 267 267 268 269 269 270 270 271 272 273 274
146 153 153 157 163 165 170 168 175 185 199 207 214 212 212 213 213 214 217 217 219 231 236 238 242 249 256 262 264 267 261 259 260 263 268 268 270 269 268 267 269 271 274 271
152 151 167 146 148 153 150 153 168 178 186 195 200 201 200 204 205 204 212 220 227 233 237 243 249 256 261 261 263 256 252 262 268 270 268 267 267 268 272 271 275 272 275 267
137 142 147 152 152 160 158 162 167 173 180 185 183 173 182 189 195 202 209 221 233 239 244 240 251 248 246 248 251 253 256 261 265 268 269 269 269 272 266 270 270 269 268 271
136 136 142 148 160 170 169 167 168 176 178 177 174 160 154 165 175 180 194 206 220 236 241 243 244 246 250 252 259 264 268 274 277 275 274 272 271 267 262 268 270 264 264 268
129 136 142 164 166 161 155 155 153 156 152 155 157 152 166 169 173 173 187 195 218 219 218 244 243 242 247 248 259 266 272 275 280 286 281 281 279 274 267 264 264 265 265 270
141 147 155 154 142 133 139 127 131 143 140 133 142 156 170 173 177 188 201 218 223 236 260 259 260 261 256 253 265 270 269 269 283 289 291 289 287 278 273 272 272 272 269 265
127 121 131 150 154 140 136 136 134 136 147 147 149 156 166 186 202 211 223 236 246 262 266 264 260 260 262 262 265 268 271 273 279 284 290 295 289 272 266 267 268 268 264 266
119 125 134 136 140 147 137 129 131 134 144 160 168 174 187 201 217 236 248 251 254 256 261 261 262 266 271 274 275 277 278 279 282 286 287 283 280 273 269 268 267 267 268 270
Height
5487 5494 5500 5504 5508 5512 5520 5526 5531 5532 5532 5534 5536 5542 5545 5546 5552 5552 5556 5565 5572 5578 5581 5585 5590 5593 5597 5598 5598 5603 5609 5615 5621 5629 5634 5643 5647 5652 5657 5661 5666 5670 5673 5680
5469 5478 5484 5490 5494 5499 5505 5513 5517 5518 5518 5521 5527 5529 5530 5531 5537 5541 5543 5553 5560 5567 5571 5577 5582 5588 5591 5593 5596 5597 5602 5609 5615 5621 5628 5633 5638 5643 5649 5654 5659 5660 5667 5674
5452 5462 5470 5476 5480 5486 5492 5499 5504 5506 5506 5513 5516 5516 5519 5521 5526 5530 5533 5542 5550 5557 5561 5566 5574 5581 5586 5590 5592 5596 5599 5605 5611 5619 5623 5627 5633 5638 5643 5647 5650 5655 5658 5663
5439 5448 5456 5462 5468 5471 5478 5486 5492 5493 5497 5501 5505 5505 5509 5512 5517 5519 5524 5532 5540 5546 5551 5557 5565 5572 5579 5584 5589 5592 5597 5601 5606 5609 5616 5621 5625 5631 5635 5639 5644 5647 5652 5654
5427 5436 5443 5449 5455 5459 5466 5473 5479 5481 5486 5489 5492 5496 5503 5506 5511 5514 5518 5524 5529 5536 5543 5549 5558 5563 5573 5577 5583 5588 5592 5597 5601 5606 5611 5616 5619 5624 5627 5630 5634 5638 5642 5647
5417 5425 5432 5439 5444 5449 5454 5461 5466 5467 5472 5477 5483 5489 5495 5501 5506 5509 5514 5518 5523 5529 5536 5540 5550 5557 5565 5570 5576 5582 5587 5593 5597 5602 5606 5610 5616 5620 5622 5625 5628 5632 5635 5638
5410 5417 5423 5429 5435 5440 5445 5452 5454 5455 5461 5465 5475 5481 5488 5494 5500 5505 5509 5514 5519 5524 5529 5536 5544 5550 5556 5562 5569 5574 5581 5585 5590 5596 5601 5606 5610 5614 5617 5618 5623 5625 5627 5629
5403 5409 5415 5421 5427 5431 5437 5443 5447 5449 5455 5460 5467 5475 5482 5487 5493 5500 5506 5511 5516 5520 5524 5531 5536 5544 5550 5556 5562 5568 5573 5579 5585 5590 5596 5600 5604 5607 5612 5614 5616 5617 5620 5622
5397 5403 5409 5414 5420 5425 5431 5437 5441 5445 5450 5456 5463 5470 5476 5483 5490 5497 5502 5506 5511 5515 5521 5527 5531 5537 5542 5548 5555 5561 5567 5572 5579 5582 5587 5593 5596 5599 5604 5607 5609 5612 5614 5614
5392 5397 5402 5408 5415 5421 5426 5431 5437 5441 5447 5453 5458 5465 5473 5480 5487 5494 5499 5504 5507 5513 5518 5522 5527 5532 5537 5543 5549 5556 5561 5565 5571 5576 5579 5583 5588 5590 5593 5598 5603 5603 5605 5605
5389 5394 5399 5405 5411 5416 5421 5427 5433 5439 5444 5450 5456 5461 5468 5476 5483 5491 5498 5501 5505 5510 5515 5519 5523 5529 5533 5538 5543 5548 5554 5557 5562 5567 5571 5575 5579 5583 5587 5587 5590 5594 5594 5595
5385 5390 5395 5401 5407 5412 5417 5424 5431 5437 5442 5448 5453 5459 5465 5473 5480 5484 5491 5497 5501 5507 5512 5516 5520 5525 5529 5533 5538 5543 5549 5552 5556 5560 5563 5565 5567 5571 5574 5577 5579 5582 5586 5587
5381 5385 5390 5396 5402 5408 5414 5421 5428 5434 5440 5445 5450 5459 5466 5471 5478 5485 5490 5495 5499 5503 5508 5513 5517 5522 5527 5531 5535 5539 5544 5548 5551 5555 5556 5558 5562 5565 5568 5570 5572 5574 5576 5579
5375 5380 5385 5391 5398 5404 5410 5418 5426 5433 5440 5446 5453 5458 5464 5471 5477 5483 5487 5492 5496 5500 5505 5509 5514 5519 5524 5528 5533 5537 5540 5545 5548 5550 5552 5554 5556 5560 5562 5564 5566 5567 5569 5570
5367 5373 5380 5386 5392 5400 5407 5414 5423 5430 5438 5444 5450 5456 5462 5469 5475 5481 5486 5490 5494 5498 5502 5507 5511 5515 5520 5524 5528 5531 5535 5539 5542 5545 5547 5548 5550 5554 5555 5557 5559 5560 5561 5561
5358 5365 5372 5379 5388 5395 5403 5409 5418 5426 5432 5440 5446 5453 5459 5466 5472 5478 5484 5488 5491 5495 5499 5504 5508 5512 5516 5520 5523 5527 5530 5533 5536 5539 5540 5542 5543 5545 5546 5548 5549 5550 5550 5551
5350 5358 5366 5374 5384 5392 5400 5408 5418 5424 5430 5436 5442 5448 5456 5463 5469 5474 5480 5485 5489 5493 5496 5501 5505 5509 5511 5515 5519 5522 5524 5527 5530 5531 5532 5534 5535 5536 5536 5536 5537 5538 5539 5539
5345 5354 5362 5372 5381 5389 5397 5405 5413 5420 5427 5433 5440 5447 5454 5460 5466 5471 5477 5482 5486 5489 5493 5497 5500 5503 5506 5510 5513 5515 5518 5519 5521 5522 5524 5525 5525 5525 5525 5525 5524 5524 5524 5524
5343 5352 5362 5371 5380 5388 5396 5403 5409 5417 5425 5430 5436 5445 5452 5457 5463 5468 5473 5477 5480 5484 5488 5492 5495 5498 5500 5504 5507 5508 5509 5510 5511 5512 5513 5513 5513 5513 5513 5512 5511 5510 5510 5510
5347 5357 5365 5373 5381 5389 5396 5401 5408 5414 5419 5426 5433 5442 5450 5455 5460 5464 5470 5473 5476 5479 5484 5486 5489 5492 5494 5497 5498 5500 5500 5500 5501 5501 5501 5501 5501 5501 5500 5499 5499 5498 5498 5497
5355 5360 5367 5377 5383 5390 5396 5400 5406 5411 5418 5424 5431 5439 5446 5452 5457 5462 5465 5469 5472 5475 5479 5480 5482 5485 5487 5489 5490 5491 5491 5492 5491 5491 5489 5488 5487 5488 5488 5488 5487 5487 5487 5485
5364 5369 5377 5383 5387 5392 5398 5402 5407 5412 5417 5423 5431 5437 5443 5448 5453 5458 5461 5464 5467 5469 5472 5473 5475 5480 5482 5483 5483 5483 5483 5483 5482 5481 5479 5478 5477 5475 5475 5475 5475 5475 5475 5474
5372 5378 5383 5388 5393 5395 5399 5404 5409 5413 5417 5422 5429 5436 5441 5447 5451 5455 5459 5461 5463 5465 5466 5468 5471 5474 5475 5476 5476 5475 5474 5473 5471 5470 5468 5466 5465 5464 5464 5463 5463 5463 5463 5462
5382 5386 5389 5391 5394 5399 5402 5406 5411 5415 5419 5423 5429 5436 5442 5448 5452 5455 5458 5460 5461 5462 5464 5466 5468 5468 5467 5467 5467 5467 5466 5465 5463 5461 5458 5456 5455 5453 5452 5452 5451 5451 5451 5450
5388 5391 5393 5396 5400 5403 5407 5411 5415 5420 5425 5430 5435 5441 5446 5449 5452 5454 5456 5458 5459 5460 5461 5462 5462 5462 5462 5461 5461 5460 5459 5457 5455 5453 5450 5448 5445 5443 5441 5441 5440 5440 5439 5438
5392 5394 5396 5400 5405 5409 5413 5416 5420 5425 5429 5434 5438 5442 5446 5449 5450 5453 5454 5456 5457 5457 5457 5456 5456 5455 5455 5454 5452 5450 5448 5447 5445 5443 5440 5437 5434 5432 5431 5430 5429 5428 5428 5427
5398 5401 5403 5407 5411 5414 5418 5421 5425 5429 5433 5437 5440 5443 5445 5448 5449 5450 5451 5452 5452 5451 5451 5450 5449 5449 5447 5446 5444 5441 5439 5437 5434 5432 5429 5427 5424 5422 5421 5420 5418 5417 5415 5414